CW1334 Weather Reports


Display with metric or nautical units.
time (UTC)temp
F
wind
direction
speed
MPH
gust
MPH
rain 1hr
in
rain 24hr
in
rain mn
in
humidity
%
barometer
mb
20260502163103 61 360 5.0 16.0 0.00 0.00 0.00 42 1019.0
20260502161559 60 43 6.0 16.0 0.00 0.00 0.00 42 1019.1
20260502151558 58 338 9.0 15.0 0.00 0.00 0.00 44 1018.9
20260502150111 57 32 8.0 14.0 0.00 0.00 0.00 45 1018.7
20260502140109 54 26 5.0 10.0 0.00 0.00 0.00 49 1018.6
20260502130108 50 48 6.0 12.0 0.00 0.00 0.00 54 1018.1
20260502123101 48 344 6.0 11.0 0.00 0.00 0.00 57 1018.0
20260502121558 48 11 7.0 11.0 0.00 0.00 0.00 56 1017.8
20260502114559 48 22 6.0 12.0 0.00 0.00 0.00 56 1017.5
20260502113053 48 5 8.0 12.0 0.00 0.00 0.00 54 1017.2
20260502111554 49 347 5.0 10.0 0.00 0.00 0.00 52 1016.7
20260502110057 48 28 5.0 10.0 0.00 0.00 0.00 52 1016.4
20260502104556 48 321 3.0 9.0 0.00 0.00 0.00 50 1016.3
20260502103053 49 27 6.0 12.0 0.00 0.00 0.00 49 1015.9
20260502101554 50 44 6.0 11.0 0.00 0.00 0.00 47 1015.8
20260502080104 50 306 4.0 7.0 0.00 0.00 0.00 41 1014.7
20260502070057 48 348 3.0 8.0 0.00 0.00 0.00 43 1014.3
20260502064553 48 335 4.0 9.0 0.00 0.00 0.00 42 1014.3
20260502063114 50 321 4.0 11.0 0.00 0.00 0.00 38 1014.3
20260502061553 51 283 5.0 10.0 0.00 0.00 0.00 38 1014.3
20260502060057 51 5 3.0 9.0 0.00 0.00 0.00 37 1014.3
20260502054601 52 16 3.0 8.0 0.00 0.00 0.00 35 1014.3
20260502053102 51 5 2.0 5.0 0.00 0.00 0.00 35 1014.3
20260502051551 52 325 3.0 6.0 0.00 0.00 0.00 34 1014.3
20260502050056 52 18 1.0 5.0 0.00 0.00 0.00 33 1014.3
20260502044556 52 355 2.0 6.0 0.00 0.00 0.00 33 1014.1
20260502043113 52 344 2.0 6.0 0.00 0.00 0.00 32 1014.1
20260502041557 55 55 3.0 8.0 0.00 0.00 0.00 28 1014.1
20260502034558 60 302 6.0 11.0 0.00 0.00 0.00 24 1014.0
20260502033054 63 277 8.0 13.0 0.00 0.00 0.00 22 1013.9
20260502031555 63 280 8.0 13.0 0.00 0.00 0.00 21 1013.7
20260502030055 63 283 9.0 14.0 0.00 0.00 0.00 21 1013.5
20260502024604 65 267 7.0 11.0 0.00 0.00 0.00 20 1013.5
20260502023054 66 294 7.0 12.0 0.00 0.00 0.00 18 1013.3
20260502021556 68 260 5.0 10.0 0.00 0.00 0.00 17 1013.2
20260502020053 69 272 4.0 7.0 0.00 0.00 0.00 17 1013.3
20260502014554 71 232 7.0 14.0 0.00 0.00 0.00 16 1013.2
20260502013054 72 277 8.0 13.0 0.00 0.00 0.00 14 1013.2
20260502011553 73 343 5.0 16.0 0.00 0.00 0.00 16 1013.2
20260502010054 74 240 8.0 13.0 0.00 0.00 0.00 16 1013.2
20260502004603 74 245 10.0 16.0 0.00 0.00 0.00 16 1013.4
20260502003056 75 267 8.0 15.0 0.00 0.00 0.00 15 1013.5
20260502001554 75 255 7.0 13.0 0.00 0.00 0.00 15 1013.6
20260502000059 75 221 8.0 15.0 0.00 0.00 0.00 16 1013.5
20260501234553 74 261 5.0 19.0 0.00 0.00 0.00 17 1013.6
20260501233100 74 256 8.0 14.0 0.00 0.00 0.00 18 1013.8
20260501231637 74 323 5.0 13.0 0.00 0.00 0.00 19 1013.8
20260501230059 74 286 9.0 19.0 0.00 0.00 0.00 19 1014.0
20260501224603 74 220 4.0 12.0 0.00 0.00 0.00 18 1014.1
20260501223057 74 70 4.0 15.0 0.00 0.00 0.00 18 1014.1
20260501221612 74 286 9.0 15.0 0.00 0.00 0.00 19 1014.1
20260501220058 74 252 7.0 17.0 0.00 0.00 0.00 19 1014.5
20260501214553 74 263 2.0 15.0 0.00 0.00 0.00 19 1014.6
20260501213107 73 238 9.0 19.0 0.00 0.00 0.00 19 1014.6
20260501211606 73 295 10.0 16.0 0.00 0.00 0.00 20 1014.7
20260501210054 73 237 10.0 23.0 0.00 0.00 0.00 19 1014.8
20260501204555 73 0 3.0 10.0 0.00 0.00 0.00 18 1015.0
20260501203054 71 215 4.0 14.0 0.00 0.00 0.00 20 1015.1
20260501201554 72 0 1.0 12.0 0.00 0.00 0.00 19 1015.3
20260501200052 72 275 6.0 11.0 0.00 0.00 0.00 17 1015.6
20260501194556 70 304 5.0 15.0 0.00 0.00 0.00 19 1015.7
20260501193052 70 323 4.0 14.0 0.00 0.00 0.00 19 1015.8
20260501191553 70 261 5.0 14.0 0.00 0.00 0.00 20 1015.8
20260501190056 69 251 4.0 14.0 0.00 0.00 0.00 21 1016.0
20260501184557 68 178 3.0 16.0 0.00 0.00 0.00 21 1016.1
20260501183054 68 223 4.0 13.0 0.00 0.00 0.00 21 1016.2
20260501181601 68 244 5.0 9.0 0.00 0.00 0.00 21 1016.4
20260501180058 67 342 5.0 11.0 0.00 0.00 0.00 22 1016.5
20260501174553 66 248 3.0 11.0 0.00 0.00 0.00 26 1016.7
20260501173054 66 301 5.0 12.0 0.00 0.00 0.00 26 1016.8
20260501171556 65 252 7.0 13.0 0.00 0.00 0.00 27 1017.0